START_TIME,STEP,MOV.,M34,t_acc.,L5,t_acc.,L18,t_acc.,L14,t_acc.
1980-11-16 06:00:13.300 ,5,0,0.,12.0,0.,12.0,0.,12.0,0.,12.0
1980-11-16 06:00:25.300 ,5,0,0.,12.0,0.,12.0,0.,12.0,0.,12.0
1980-11-16 06:00:37.300 ,6,1,0.,12.0,0.,12.0,0.,12.0,0.,12.0
1980-11-16 06:00:49.300 ,6,1,0.,12.0,0.,12.0,0.,12.0,0.,12.0
1980-11-16 06:01:01.300 ,6,0,0.,12.0,0.,12.0,0.,12.0,0.,12.0
1980-11-16 06:01:13.300 ,6,0,0.,12.0,0.,12.0,0.,12.0,0.,12.0
1980-11-16 06:01:25.300 ,7,1,0.,12.0,0.,12.0,0.,12.0,0.,12.0
1980-11-16 06:01:37.300 ,7,1,0.,12.0,3.,12.0,0.,12.0,0.,12.0
1980-11-16 06:01:49.300 ,7,0,0.,12.0,1.,12.0,0.,12.0,0.,12.0
1980-11-16 06:02:01.300 ,7,0,0.,12.0,4.,12.0,0.,12.0,0.,12.0
1980-11-16 06:02:13.300 ,7,1,0.,12.0,3.,12.0,0.,12.0,0.,12.0
1980-11-16 06:02:25.300 ,7,1,0.,12.0,3.,12.0,0.,12.0,0.,12.0
1980-11-16 06:02:37.300 ,7,0,0.,12.0,3.,12.0,0.,12.0,0.,12.0
1980-11-16 06:02:49.300 ,7,0,0.,12.0,6.,12.0,0.,12.0,0.,12.0
1980-11-16 06:03:01.300 ,6,1,0.,12.0,8.,12.0,0.,12.0,0.,12.0
1980-11-16 06:03:13.300 ,6,1,0.,12.0,0.,12.0,0.,12.0,0.,12.0
1980-11-16 06:03:25.300 ,6,0,0.,12.0,0.,12.0,0.,12.0,0.,12.0
1980-11-16 06:03:37.300 ,6,0,0.,12.0,0.,12.0,0.,12.0,0.,12.0
1980-11-16 06:03:49.300 ,5,1,0.,12.0,0.,12.0,0.,12.0,0.,12.0
1980-11-16 06:04:01.300 ,5,1,0.,12.0,0.,12.0,0.,12.0,0.,12.0
1980-11-16 06:04:13.300 ,5,0,0.,12.0,0.,12.0,0.,12.0,0.,12.0
1980-11-16 06:04:25.300 ,5,0,0.,12.0,0.,12.0,0.,12.0,0.,12.0
1980-11-16 06:04:37.300 ,4,1,0.,12.0,0.,12.0,0.,12.0,0.,12.0
1980-11-16 06:04:49.300 ,4,1,0.,12.0,0.,12.0,0.,12.0,0.,12.0
1980-11-16 06:05:01.300 ,4,0,0.,12.0,0.,12.0,0.,12.0,1.,12.0
1980-11-16 06:05:13.300 ,4,0,0.,12.0,0.,12.0,0.,12.0,0.,12.0
1980-11-16 06:05:25.300 ,3,1,0.,12.0,0.,12.0,0.,12.0,0.,12.0
1980-11-16 06:05:37.300 ,3,1,0.,12.0,0.,12.0,0.,12.0,0.,12.0
1980-11-16 06:05:49.300 ,3,0,0.,12.0,0.,12.0,0.,12.0,0.,12.0
1980-11-16 06:06:01.300 ,3,0,0.,12.0,0.,12.0,0.,12.0,0.,12.0
1980-11-16 06:06:13.300 ,2,1,0.,12.0,0.,12.0,0.,12.0,0.,12.0
1980-11-16 06:06:25.300 ,2,1,0.,12.0,0.,12.0,0.,12.0,0.,12.0
1980-11-16 06:06:37.300 ,2,0,0.,12.0,0.,12.0,0.,12.0,0.,12.0
1980-11-16 06:06:49.300 ,2,0,0.,12.0,0.,12.0,0.,12.0,0.,12.0
1980-11-16 06:07:01.300 ,1,1,0.,12.0,0.,12.0,0.,12.0,0.,12.0
1980-11-16 06:07:13.300 ,1,1,0.,12.0,0.,12.0,0.,12.0,0.,12.0
1980-11-16 06:07:25.300 ,1,0,0.,12.0,0.,12.0,0.,12.0,1.,12.0
1980-11-16 06:07:37.300 ,1,0,0.,12.0,0.,12.0,0.,12.0,0.,12.0
1980-11-16 06:07:49.300 ,0,1,0.,12.0,0.,12.0,0.,12.0,0.,12.0
1980-11-16 06:08:01.300 ,0,1,0.,12.0,0.,12.0,0.,12.0,0.,12.0
1980-11-16 06:08:13.300 ,0,0,0.,12.0,0.,12.0,0.,12.0,0.,12.0
1980-11-16 06:08:25.300 ,0,0,0.,12.0,0.,12.0,0.,12.0,0.,12.0
1980-11-16 06:08:37.300 ,0,1,0.,12.0,0.,12.0,0.,12.0,0.,12.0
1980-11-16 06:08:49.300 ,0,1,0.,12.0,0.,12.0,0.,12.0,0.,12.0
1980-11-16 06:09:01.300 ,0,0,0.,12.0,0.,12.0,0.,12.0,0.,12.0
1980-11-16 06:09:13.300 ,0,0,0.,12.0,0.,12.0,0.,12.0,0.,12.0
1980-11-16 06:09:25.300 ,1,1,0.,12.0,0.,12.0,0.,12.0,0.,12.0
1980-11-16 06:09:37.300 ,1,1,0.,12.0,0.,12.0,0.,12.0,0.,12.0
1980-11-16 06:09:49.300 ,1,0,0.,12.0,0.,12.0,0.,12.0,0.,12.0
1980-11-16 06:10:01.300 ,1,0,0.,12.0,0.,12.0,0.,12.0,0.,12.0
1980-11-16 06:10:13.300 ,2,1,0.,12.0,0.,12.0,0.,12.0,0.,12.0
1980-11-16 06:10:25.300 ,2,1,0.,12.0,0.,12.0,0.,12.0,0.,12.0
1980-11-16 06:10:37.300 ,2,0,0.,12.0,0.,12.0,0.,12.0,0.,12.0
1980-11-16 06:10:49.300 ,2,0,0.,12.0,0.,12.0,0.,12.0,0.,12.0
1980-11-16 06:11:01.300 ,3,1,0.,12.0,0.,12.0,0.,12.0,0.,12.0
1980-11-16 06:11:13.300 ,3,1,0.,12.0,0.,12.0,0.,12.0,0.,12.0
1980-11-16 06:11:25.300 ,3,0,0.,12.0,0.,12.0,0.,12.0,0.,12.0
1980-11-16 06:11:37.300 ,3,0,0.,12.0,0.,12.0,0.,12.0,0.,12.0
1980-11-16 06:11:49.300 ,4,1,0.,12.0,0.,12.0,0.,12.0,0.,12.0
1980-11-16 06:12:01.300 ,4,1,0.,12.0,0.,12.0,0.,12.0,0.,12.0
1980-11-16 06:12:13.300 ,4,0,0.,12.0,0.,12.0,0.,12.0,0.,12.0
1980-11-16 06:12:25.300 ,4,0,0.,12.0,0.,12.0,0.,12.0,0.,12.0
1980-11-16 06:12:37.300 ,5,1,0.,12.0,0.,12.0,0.,12.0,0.,12.0
1980-11-16 06:12:49.300 ,5,1,0.,12.0,0.,12.0,0.,12.0,0.,12.0
1980-11-16 06:13:01.300 ,5,0,0.,12.0,0.,12.0,0.,12.0,0.,12.0
1980-11-16 06:13:13.300 ,5,0,0.,12.0,0.,12.0,0.,12.0,0.,12.0
1980-11-16 06:14:13.300 ,0,0,0.,12.0,0.,12.0,0.,12.0,0.,12.0
1980-11-16 06:14:25.300 ,0,0,0.,12.0,3.,12.0,0.,12.0,0.,12.0
1980-11-16 06:14:37.300 ,0,0,0.,12.0,5.,12.0,0.,12.0,0.,12.0
1980-11-16 06:14:49.300 ,0,0,0.,12.0,6.,12.0,0.,12.0,0.,12.0
1980-11-16 06:15:01.300 ,7,1,0.,12.0,2.,12.0,0.,12.0,0.,12.0
1980-11-16 06:15:13.300 ,7,1,0.,12.0,3.,12.0,0.,12.0,0.,12.0
1980-11-16 06:15:25.300 ,7,0,0.,12.0,5.,12.0,0.,12.0,0.,12.0
1980-11-16 06:15:37.300 ,7,0,0.,12.0,3.,12.0,0.,12.0,0.,12.0
1980-11-16 06:15:49.300 ,6,1,0.,12.0,1.,12.0,0.,12.0,0.,12.0
1980-11-16 06:16:01.300 ,6,1,0.,12.0,2.,12.0,0.,12.0,0.,12.0
1980-11-16 06:16:13.300 ,6,0,0.,12.0,0.,12.0,0.,12.0,0.,12.0
1980-11-16 06:16:25.300 ,6,0,0.,12.0,0.,12.0,0.,12.0,0.,12.0
1980-11-16 06:16:37.300 ,5,1,0.,12.0,0.,12.0,0.,12.0,0.,12.0
1980-11-16 06:16:49.300 ,5,1,0.,12.0,0.,12.0,0.,12.0,0.,12.0
1980-11-16 06:17:01.300 ,5,0,0.,12.0,0.,12.0,0.,12.0,0.,12.0
1980-11-16 06:17:13.300 ,5,0,0.,12.0,0.,12.0,0.,12.0,0.,12.0
1980-11-16 06:17:25.300 ,4,1,0.,12.0,0.,12.0,0.,12.0,0.,12.0
1980-11-16 06:17:37.300 ,4,1,0.,12.0,0.,12.0,0.,12.0,0.,12.0
1980-11-16 06:17:49.300 ,4,0,0.,12.0,0.,12.0,0.,12.0,0.,12.0
1980-11-16 06:18:01.300 ,4,0,0.,12.0,0.,12.0,0.,12.0,0.,12.0
1980-11-16 06:18:13.300 ,3,1,0.,12.0,0.,12.0,0.,12.0,0.,12.0
1980-11-16 06:18:25.300 ,3,1,0.,12.0,0.,12.0,0.,12.0,0.,12.0
1980-11-16 06:18:37.300 ,3,0,0.,12.0,0.,12.0,0.,12.0,0.,12.0
1980-11-16 06:18:49.300 ,3,0,0.,12.0,0.,12.0,0.,12.0,0.,12.0
1980-11-16 06:19:01.300 ,2,1,0.,12.0,0.,12.0,0.,12.0,0.,12.0
1980-11-16 06:19:13.300 ,2,1,0.,12.0,0.,12.0,0.,12.0,0.,12.0
1980-11-16 06:19:25.300 ,2,0,0.,12.0,0.,12.0,0.,12.0,0.,12.0
1980-11-16 06:19:37.300 ,2,0,0.,12.0,0.,12.0,0.,12.0,0.,12.0
1980-11-16 06:19:49.300 ,1,1,0.,12.0,0.,12.0,0.,12.0,0.,12.0
1980-11-16 06:20:01.300 ,1,1,0.,12.0,0.,12.0,0.,12.0,0.,12.0
1980-11-16 06:20:13.300 ,1,0,0.,12.0,0.,12.0,0.,12.0,0.,12.0
1980-11-16 06:20:25.300 ,1,0,0.,12.0,0.,12.0,0.,12.0,0.,12.0
1980-11-16 06:20:37.300 ,0,1,0.,12.0,0.,12.0,0.,12.0,0.,12.0
1980-11-16 06:20:49.300 ,0,1,0.,12.0,0.,12.0,0.,12.0,0.,12.0
1980-11-16 06:21:01.300 ,0,0,0.,12.0,0.,12.0,0.,12.0,0.,12.0
1980-11-16 06:21:13.300 ,0,0,0.,12.0,0.,12.0,0.,12.0,0.,12.0
1980-11-16 06:21:25.300 ,0,1,0.,12.0,0.,12.0,0.,12.0,0.,12.0
1980-11-16 06:21:37.300 ,0,1,0.,12.0,0.,12.0,0.,12.0,0.,12.0
1980-11-16 06:21:49.300 ,0,0,0.,12.0,0.,12.0,0.,12.0,0.,12.0
1980-11-16 06:22:01.300 ,0,0,0.,12.0,0.,12.0,0.,12.0,0.,12.0
1980-11-16 06:22:13.300 ,1,1,0.,12.0,0.,12.0,0.,12.0,0.,12.0
1980-11-16 06:22:25.300 ,1,1,0.,12.0,0.,12.0,0.,12.0,0.,12.0
1980-11-16 06:22:37.300 ,1,0,0.,12.0,0.,12.0,0.,12.0,0.,12.0
1980-11-16 06:22:49.300 ,1,0,0.,12.0,0.,12.0,0.,12.0,0.,12.0
1980-11-16 06:23:01.300 ,2,1,0.,12.0,0.,12.0,0.,12.0,0.,12.0
1980-11-16 06:23:13.300 ,2,1,0.,12.0,0.,12.0,0.,12.0,0.,12.0
1980-11-16 06:23:25.300 ,2,0,0.,12.0,0.,12.0,0.,12.0,0.,12.0
1980-11-16 06:23:37.300 ,2,0,0.,12.0,0.,12.0,0.,12.0,0.,12.0
1980-11-16 06:23:49.300 ,3,1,0.,12.0,0.,12.0,0.,12.0,0.,12.0
1980-11-16 06:24:01.300 ,3,1,0.,12.0,0.,12.0,0.,12.0,0.,12.0
1980-11-16 06:24:13.300 ,3,0,0.,12.0,0.,12.0,0.,12.0,0.,12.0
1980-11-16 06:24:25.300 ,3,0,0.,12.0,0.,12.0,0.,12.0,0.,12.0
1980-11-16 06:24:37.300 ,4,1,0.,12.0,0.,12.0,0.,12.0,0.,12.0
1980-11-16 06:24:49.300 ,4,1,0.,12.0,0.,12.0,0.,12.0,0.,12.0
1980-11-16 06:25:01.300 ,4,0,0.,12.0,0.,12.0,0.,12.0,0.,12.0
1980-11-16 06:25:13.300 ,4,0,0.,12.0,0.,12.0,0.,12.0,0.,12.0
1980-11-16 06:25:25.300 ,5,1,0.,12.0,0.,12.0,0.,12.0,0.,12.0
1980-11-16 06:25:37.300 ,5,1,0.,12.0,0.,12.0,0.,12.0,0.,12.0
1980-11-16 06:25:49.300 ,5,0,0.,12.0,0.,12.0,0.,12.0,0.,12.0
1980-11-16 06:26:01.300 ,5,0,0.,12.0,0.,12.0,0.,12.0,0.,12.0
1980-11-16 06:26:13.300 ,6,1,0.,12.0,0.,12.0,0.,12.0,0.,12.0
1980-11-16 06:26:25.300 ,6,1,0.,12.0,0.,12.0,0.,12.0,0.,12.0
1980-11-16 06:26:37.300 ,6,0,0.,12.0,0.,12.0,0.,12.0,0.,12.0
1980-11-16 06:26:49.300 ,6,0,0.,12.0,0.,12.0,0.,12.0,0.,12.0
1980-11-16 06:27:01.300 ,7,1,0.,12.0,0.,12.0,0.,12.0,0.,12.0
1980-11-16 06:27:13.300 ,7,1,0.,12.0,2.,12.0,0.,12.0,0.,12.0
1980-11-16 06:27:25.300 ,7,0,0.,12.0,1.,12.0,0.,12.0,0.,12.0
1980-11-16 06:27:37.300 ,7,0,0.,12.0,2.,12.0,0.,12.0,0.,12.0
1980-11-16 06:27:49.300 ,7,1,0.,12.0,2.,12.0,0.,12.0,0.,12.0
1980-11-16 06:28:01.300 ,7,1,0.,12.0,2.,12.0,0.,12.0,0.,12.0
1980-11-16 06:28:13.300 ,7,0,0.,12.0,6.,12.0,0.,12.0,0.,12.0
1980-11-16 06:28:25.300 ,7,0,0.,12.0,4.,12.0,0.,12.0,0.,12.0
1980-11-16 06:28:37.300 ,6,1,0.,12.0,3.,12.0,0.,12.0,0.,12.0
1980-11-16 06:28:49.300 ,6,1,0.,12.0,1.,12.0,0.,12.0,0.,12.0
1980-11-16 06:29:01.300 ,6,0,0.,12.0,0.,12.0,0.,12.0,0.,12.0
1980-11-16 06:29:13.300 ,6,0,0.,12.0,0.,12.0,0.,12.0,0.,12.0
1980-11-16 06:29:25.300 ,5,1,0.,12.0,0.,12.0,0.,12.0,0.,12.0
1980-11-16 06:29:37.300 ,5,1,0.,12.0,0.,12.0,0.,12.0,0.,12.0
1980-11-16 06:29:49.300 ,5,0,0.,12.0,0.,12.0,0.,12.0,0.,12.0
1980-11-16 06:30:01.300 ,5,0,0.,12.0,0.,12.0,0.,12.0,0.,12.0
1980-11-16 06:30:13.300 ,4,1,0.,12.0,0.,12.0,0.,12.0,0.,12.0
1980-11-16 06:30:25.300 ,4,1,0.,12.0,0.,12.0,0.,12.0,0.,12.0
1980-11-16 06:30:37.300 ,4,0,0.,12.0,0.,12.0,0.,12.0,1.,12.0
1980-11-16 06:30:49.300 ,4,0,0.,12.0,0.,12.0,0.,12.0,0.,12.0
1980-11-16 06:31:01.300 ,3,1,0.,12.0,0.,12.0,0.,12.0,0.,12.0
1980-11-16 06:31:13.300 ,3,1,0.,12.0,0.,12.0,0.,12.0,0.,12.0
1980-11-16 06:31:25.300 ,3,0,0.,12.0,0.,12.0,0.,12.0,0.,12.0
1980-11-16 06:31:37.300 ,3,0,0.,12.0,0.,12.0,0.,12.0,0.,12.0
1980-11-16 06:31:49.300 ,2,1,0.,12.0,0.,12.0,0.,12.0,0.,12.0
1980-11-16 06:32:01.300 ,2,1,0.,12.0,0.,12.0,0.,12.0,0.,12.0
1980-11-16 06:32:13.300 ,2,0,0.,12.0,0.,12.0,0.,12.0,0.,12.0
1980-11-16 06:32:25.300 ,2,0,0.,12.0,0.,12.0,0.,12.0,0.,12.0
1980-11-16 06:32:37.300 ,1,1,0.,12.0,0.,12.0,0.,12.0,0.,12.0
1980-11-16 06:32:49.300 ,1,1,0.,12.0,0.,12.0,0.,12.0,0.,12.0
1980-11-16 06:33:01.300 ,1,0,0.,12.0,1.,12.0,0.,12.0,0.,12.0
1980-11-16 06:33:13.300 ,1,0,0.,12.0,0.,12.0,0.,12.0,0.,12.0
1980-11-16 06:33:25.300 ,0,1,0.,12.0,0.,12.0,0.,12.0,0.,12.0
1980-11-16 06:33:37.300 ,0,1,0.,12.0,0.,12.0,0.,12.0,0.,12.0
1980-11-16 06:33:49.300 ,0,0,0.,12.0,0.,12.0,0.,12.0,0.,12.0
1980-11-16 06:34:01.300 ,0,0,0.,12.0,0.,12.0,0.,12.0,0.,12.0
1980-11-16 06:34:13.300 ,0,1,0.,12.0,0.,12.0,0.,12.0,0.,12.0
1980-11-16 06:34:25.300 ,0,1,0.,12.0,0.,12.0,0.,12.0,0.,12.0
1980-11-16 06:34:37.300 ,0,0,0.,12.0,0.,12.0,0.,12.0,0.,12.0
1980-11-16 06:34:49.300 ,0,0,0.,12.0,0.,12.0,0.,12.0,0.,12.0
1980-11-16 06:35:01.300 ,1,1,0.,12.0,0.,12.0,0.,12.0,0.,12.0
1980-11-16 06:35:13.300 ,1,1,0.,12.0,0.,12.0,0.,12.0,0.,12.0
1980-11-16 06:35:25.300 ,1,0,0.,12.0,0.,12.0,0.,12.0,0.,12.0
1980-11-16 06:35:37.300 ,1,0,0.,12.0,0.,12.0,0.,12.0,0.,12.0
1980-11-16 06:35:49.300 ,2,1,0.,12.0,0.,12.0,0.,12.0,0.,12.0
1980-11-16 06:36:01.300 ,2,1,0.,12.0,0.,12.0,0.,12.0,0.,12.0
1980-11-16 06:36:13.300 ,2,0,0.,12.0,0.,12.0,0.,12.0,0.,12.0
1980-11-16 06:36:25.300 ,2,0,0.,12.0,0.,12.0,0.,12.0,0.,12.0
1980-11-16 06:36:37.300 ,3,1,0.,12.0,0.,12.0,0.,12.0,0.,12.0
1980-11-16 06:36:49.300 ,3,1,0.,12.0,0.,12.0,0.,12.0,0.,12.0
1980-11-16 06:37:01.300 ,3,0,0.,12.0,0.,12.0,0.,12.0,0.,12.0
1980-11-16 06:37:13.300 ,3,0,0.,12.0,1.,12.0,0.,12.0,0.,12.0
1980-11-16 06:37:25.300 ,4,1,0.,12.0,0.,12.0,0.,12.0,0.,12.0
1980-11-16 06:37:37.300 ,4,1,0.,12.0,0.,12.0,0.,12.0,0.,12.0
1980-11-16 06:37:49.300 ,4,0,0.,12.0,0.,12.0,0.,12.0,0.,12.0
1980-11-16 06:38:01.300 ,4,0,0.,12.0,0.,12.0,0.,12.0,0.,12.0
1980-11-16 06:38:13.300 ,5,1,0.,12.0,0.,12.0,0.,12.0,0.,12.0
1980-11-16 06:38:25.300 ,5,1,0.,12.0,0.,12.0,0.,12.0,0.,12.0
1980-11-16 06:38:37.300 ,5,0,0.,12.0,0.,12.0,0.,12.0,0.,12.0
1980-11-16 06:38:49.300 ,5,0,0.,12.0,0.,12.0,0.,12.0,0.,12.0
1980-11-16 06:39:01.300 ,6,1,0.,12.0,0.,12.0,0.,12.0,0.,12.0
1980-11-16 06:39:13.300 ,6,1,0.,12.0,0.,12.0,0.,12.0,0.,12.0
1980-11-16 06:39:25.300 ,6,0,0.,12.0,0.,12.0,0.,12.0,0.,12.0
1980-11-16 06:39:37.300 ,6,0,0.,12.0,0.,12.0,0.,12.0,0.,12.0
1980-11-16 06:39:49.300 ,7,1,0.,12.0,0.,12.0,0.,12.0,0.,12.0
1980-11-16 06:40:01.300 ,7,1,0.,12.0,0.,12.0,0.,12.0,0.,12.0
1980-11-16 06:40:13.300 ,7,0,0.,12.0,3.,12.0,0.,12.0,0.,12.0
1980-11-16 06:40:25.300 ,7,0,0.,12.0,2.,12.0,0.,12.0,0.,12.0
1980-11-16 06:40:37.300 ,7,1,0.,12.0,5.,12.0,0.,12.0,0.,12.0
1980-11-16 06:40:49.300 ,7,1,0.,12.0,3.,12.0,0.,12.0,0.,12.0
1980-11-16 06:41:01.300 ,7,0,0.,12.0,1.,12.0,0.,12.0,0.,12.0
1980-11-16 06:41:13.300 ,7,0,0.,12.0,3.,12.0,0.,12.0,0.,12.0
1980-11-16 06:41:25.300 ,6,1,0.,12.0,4.,12.0,0.,12.0,0.,12.0
1980-11-16 06:41:37.300 ,6,1,0.,12.0,1.,12.0,0.,12.0,0.,12.0
1980-11-16 06:41:49.300 ,6,0,0.,12.0,0.,12.0,0.,12.0,0.,12.0
1980-11-16 06:42:01.300 ,6,0,0.,12.0,0.,12.0,0.,12.0,0.,12.0
1980-11-16 06:42:13.300 ,5,1,0.,12.0,0.,12.0,0.,12.0,0.,12.0
1980-11-16 06:42:25.300 ,5,1,0.,12.0,0.,12.0,0.,12.0,0.,12.0
1980-11-16 06:42:37.300 ,5,0,0.,12.0,0.,12.0,0.,12.0,0.,12.0
1980-11-16 06:42:49.300 ,5,0,0.,12.0,0.,12.0,0.,12.0,0.,12.0
1980-11-16 06:43:01.300 ,4,1,0.,12.0,0.,12.0,0.,12.0,0.,12.0
1980-11-16 06:43:13.300 ,4,1,0.,12.0,0.,12.0,0.,12.0,0.,12.0
1980-11-16 06:43:25.300 ,4,0,0.,12.0,0.,12.0,0.,12.0,0.,12.0
1980-11-16 06:43:37.300 ,4,0,0.,12.0,0.,12.0,0.,12.0,0.,12.0
1980-11-16 06:43:49.300 ,3,1,0.,12.0,0.,12.0,0.,12.0,0.,12.0
1980-11-16 06:44:01.300 ,3,1,0.,12.0,0.,12.0,0.,12.0,0.,12.0
1980-11-16 06:44:13.300 ,3,0,0.,12.0,0.,12.0,0.,12.0,0.,12.0
1980-11-16 06:44:25.300 ,3,0,0.,12.0,0.,12.0,0.,12.0,0.,12.0
1980-11-16 06:44:37.300 ,2,1,0.,12.0,0.,12.0,0.,12.0,0.,12.0
1980-11-16 06:44:49.300 ,2,1,0.,12.0,0.,12.0,0.,12.0,1.,12.0
1980-11-16 06:45:01.300 ,2,0,0.,12.0,0.,12.0,0.,12.0,0.,12.0
1980-11-16 06:45:13.300 ,2,0,0.,12.0,0.,12.0,0.,12.0,0.,12.0
1980-11-16 06:45:25.300 ,1,1,0.,12.0,0.,12.0,0.,12.0,0.,12.0
1980-11-16 06:45:37.300 ,1,1,0.,12.0,0.,12.0,0.,12.0,0.,12.0
1980-11-16 06:45:49.300 ,1,0,0.,12.0,0.,12.0,0.,12.0,0.,12.0
1980-11-16 06:46:01.300 ,1,0,0.,12.0,0.,12.0,0.,12.0,0.,12.0
1980-11-16 06:46:13.300 ,0,1,0.,12.0,0.,12.0,0.,12.0,0.,12.0
1980-11-16 06:46:25.300 ,0,1,0.,12.0,0.,12.0,0.,12.0,0.,12.0
1980-11-16 06:46:37.300 ,0,0,0.,12.0,0.,12.0,0.,12.0,0.,12.0
1980-11-16 06:46:49.300 ,0,0,0.,12.0,0.,12.0,0.,12.0,0.,12.0
1980-11-16 06:47:01.300 ,0,1,0.,12.0,0.,12.0,0.,12.0,0.,12.0
1980-11-16 06:47:13.300 ,0,1,0.,12.0,0.,12.0,0.,12.0,0.,12.0
1980-11-16 06:47:25.300 ,0,0,0.,12.0,0.,12.0,0.,12.0,0.,12.0
1980-11-16 06:47:37.300 ,0,0,0.,12.0,0.,12.0,0.,12.0,0.,12.0
1980-11-16 06:47:49.300 ,1,1,0.,12.0,0.,12.0,0.,12.0,0.,12.0
1980-11-16 06:48:01.300 ,1,1,0.,12.0,0.,12.0,0.,12.0,0.,12.0
1980-11-16 06:48:13.300 ,1,0,0.,12.0,0.,12.0,0.,12.0,0.,12.0
1980-11-16 06:48:25.300 ,1,0,0.,12.0,0.,12.0,0.,12.0,0.,12.0
1980-11-16 06:48:37.300 ,2,1,0.,12.0,0.,12.0,0.,12.0,0.,12.0
1980-11-16 06:48:49.300 ,2,1,0.,12.0,0.,12.0,0.,12.0,0.,12.0
1980-11-16 06:49:01.300 ,2,0,0.,12.0,0.,12.0,0.,12.0,0.,12.0
1980-11-16 06:49:13.300 ,2,0,0.,12.0,0.,12.0,0.,12.0,0.,12.0
1980-11-16 06:49:25.300 ,3,1,0.,12.0,0.,12.0,0.,12.0,0.,12.0
1980-11-16 06:49:37.300 ,3,1,0.,12.0,0.,12.0,0.,12.0,0.,12.0
1980-11-16 06:49:49.300 ,3,0,0.,12.0,0.,12.0,0.,12.0,0.,12.0
1980-11-16 06:50:01.300 ,3,0,0.,12.0,0.,12.0,0.,12.0,0.,12.0
1980-11-16 06:50:13.300 ,4,1,0.,12.0,0.,12.0,0.,12.0,0.,12.0
1980-11-16 06:50:25.300 ,4,1,0.,12.0,0.,12.0,0.,12.0,0.,12.0
1980-11-16 06:50:37.300 ,4,0,0.,12.0,0.,12.0,0.,12.0,0.,12.0
1980-11-16 06:50:49.300 ,4,0,0.,12.0,0.,12.0,0.,12.0,0.,12.0
1980-11-16 06:51:01.300 ,5,1,0.,12.0,0.,12.0,0.,12.0,0.,12.0
1980-11-16 06:51:13.300 ,5,1,0.,12.0,0.,12.0,0.,12.0,0.,12.0
1980-11-16 06:51:25.300 ,5,0,0.,12.0,0.,12.0,0.,12.0,0.,12.0
1980-11-16 06:51:37.300 ,5,0,0.,12.0,0.,12.0,0.,12.0,0.,12.0
1980-11-16 06:51:49.300 ,6,1,0.,12.0,0.,12.0,0.,12.0,0.,12.0
1980-11-16 06:52:01.300 ,6,1,0.,12.0,0.,12.0,0.,12.0,0.,12.0
1980-11-16 06:52:13.300 ,6,0,0.,12.0,0.,12.0,0.,12.0,0.,12.0
1980-11-16 06:52:25.300 ,6,0,0.,12.0,0.,12.0,0.,12.0,0.,12.0
1980-11-16 06:52:37.300 ,7,1,0.,12.0,0.,12.0,0.,12.0,0.,12.0
1980-11-16 06:52:49.300 ,7,1,0.,12.0,3.,12.0,0.,12.0,0.,12.0
1980-11-16 06:53:01.300 ,7,0,0.,12.0,5.,12.0,0.,12.0,0.,12.0
1980-11-16 06:53:13.300 ,7,0,0.,12.0,6.,12.0,0.,12.0,0.,12.0
1980-11-16 06:53:25.300 ,7,1,0.,12.0,4.,12.0,0.,12.0,0.,12.0
1980-11-16 06:53:37.300 ,7,1,0.,12.0,1.,12.0,0.,12.0,0.,12.0
1980-11-16 06:53:49.300 ,7,0,0.,12.0,2.,12.0,0.,12.0,0.,12.0
1980-11-16 06:54:01.300 ,7,0,0.,12.0,8.,12.0,0.,12.0,0.,12.0
1980-11-16 06:54:13.300 ,6,1,0.,12.0,5.,12.0,0.,12.0,0.,12.0
1980-11-16 06:54:25.300 ,6,1,0.,12.0,0.,12.0,0.,12.0,0.,12.0
1980-11-16 06:54:37.300 ,6,0,0.,12.0,0.,12.0,0.,12.0,0.,12.0
1980-11-16 06:54:49.300 ,6,0,0.,12.0,0.,12.0,0.,12.0,0.,12.0
1980-11-16 06:55:01.300 ,5,1,0.,12.0,0.,12.0,0.,12.0,0.,12.0
1980-11-16 06:55:13.300 ,5,1,0.,12.0,0.,12.0,0.,12.0,0.,12.0
1980-11-16 06:55:25.300 ,5,0,0.,12.0,0.,12.0,0.,12.0,0.,12.0
1980-11-16 06:55:37.300 ,5,0,0.,12.0,0.,12.0,0.,12.0,0.,12.0
1980-11-16 06:55:49.300 ,4,1,0.,12.0,0.,12.0,0.,12.0,0.,12.0
1980-11-16 06:56:01.300 ,4,1,0.,12.0,0.,12.0,0.,12.0,0.,12.0
1980-11-16 06:56:13.300 ,4,0,0.,12.0,0.,12.0,0.,12.0,0.,12.0
1980-11-16 06:56:25.300 ,4,0,0.,12.0,0.,12.0,0.,12.0,0.,12.0
1980-11-16 06:56:37.300 ,3,1,0.,12.0,0.,12.0,0.,12.0,0.,12.0
1980-11-16 06:56:49.300 ,3,1,0.,12.0,0.,12.0,0.,12.0,0.,12.0
1980-11-16 06:57:01.300 ,3,0,0.,12.0,0.,12.0,0.,12.0,0.,12.0
1980-11-16 06:57:13.300 ,3,0,0.,12.0,0.,12.0,0.,12.0,0.,12.0
1980-11-16 06:57:25.300 ,2,1,0.,12.0,0.,12.0,0.,12.0,0.,12.0
1980-11-16 06:57:37.300 ,2,1,0.,12.0,0.,12.0,0.,12.0,0.,12.0
1980-11-16 06:57:49.300 ,2,0,0.,12.0,0.,12.0,0.,12.0,0.,12.0
1980-11-16 06:58:01.300 ,2,0,0.,12.0,0.,12.0,0.,12.0,0.,12.0
1980-11-16 06:58:13.300 ,1,1,0.,12.0,0.,12.0,0.,12.0,0.,12.0
1980-11-16 06:58:25.300 ,1,1,0.,12.0,0.,12.0,0.,12.0,0.,12.0
1980-11-16 06:58:37.300 ,1,0,0.,12.0,0.,12.0,0.,12.0,0.,12.0
1980-11-16 06:58:49.300 ,1,0,0.,12.0,0.,12.0,0.,12.0,0.,12.0
1980-11-16 06:59:01.300 ,0,1,0.,12.0,0.,12.0,0.,12.0,0.,12.0
1980-11-16 06:59:13.300 ,0,1,0.,12.0,0.,12.0,0.,12.0,0.,12.0
1980-11-16 06:59:25.300 ,0,0,0.,12.0,0.,12.0,0.,12.0,0.,12.0
1980-11-16 06:59:37.300 ,0,0,0.,12.0,0.,12.0,0.,12.0,0.,12.0
1980-11-16 06:59:49.300 ,0,1,0.,12.0,0.,12.0,0.,12.0,0.,12.0
1980-11-16 07:00:01.300 ,0,1,0.,12.0,0.,12.0,0.,12.0,0.,12.0
1980-11-16 07:00:13.300 ,0,0,0.,12.0,0.,12.0,0.,12.0,0.,12.0
1980-11-16 07:00:25.300 ,0,0,0.,12.0,0.,12.0,0.,12.0,0.,12.0
1980-11-16 07:00:37.300 ,1,1,0.,12.0,0.,12.0,0.,12.0,0.,12.0
1980-11-16 07:00:49.300 ,1,1,0.,12.0,0.,12.0,0.,12.0,0.,12.0
1980-11-16 07:01:01.300 ,1,0,0.,12.0,0.,12.0,0.,12.0,0.,12.0
1980-11-16 07:01:13.300 ,1,0,0.,12.0,0.,12.0,0.,12.0,0.,12.0
1980-11-16 07:01:25.300 ,2,1,0.,12.0,0.,12.0,0.,12.0,0.,12.0
1980-11-16 07:01:37.300 ,2,1,0.,12.0,0.,12.0,0.,12.0,0.,12.0
1980-11-16 07:01:49.300 ,2,0,0.,12.0,0.,12.0,0.,12.0,0.,12.0
1980-11-16 07:02:01.300 ,2,0,0.,12.0,0.,12.0,0.,12.0,0.,12.0
1980-11-16 07:02:13.300 ,3,1,0.,12.0,0.,12.0,0.,12.0,0.,12.0
1980-11-16 07:02:25.300 ,3,1,0.,12.0,0.,12.0,0.,12.0,0.,12.0
1980-11-16 07:02:37.300 ,3,0,0.,12.0,0.,12.0,0.,12.0,0.,12.0
1980-11-16 07:02:49.300 ,3,0,0.,12.0,0.,12.0,0.,12.0,0.,12.0
1980-11-16 07:03:01.300 ,4,1,0.,12.0,0.,12.0,0.,12.0,0.,12.0
1980-11-16 07:03:13.300 ,4,1,0.,12.0,0.,12.0,0.,12.0,0.,12.0
1980-11-16 07:03:25.300 ,4,0,0.,12.0,0.,12.0,0.,12.0,0.,12.0
1980-11-16 07:03:37.300 ,4,0,0.,12.0,0.,12.0,0.,12.0,0.,12.0
1980-11-16 07:03:49.300 ,5,1,0.,12.0,0.,12.0,0.,12.0,0.,12.0
1980-11-16 07:04:01.300 ,5,1,0.,12.0,0.,12.0,0.,12.0,0.,12.0
1980-11-16 07:04:13.300 ,5,0,0.,12.0,0.,12.0,0.,12.0,0.,12.0
1980-11-16 07:04:25.300 ,5,0,0.,12.0,0.,12.0,0.,12.0,0.,12.0
1980-11-16 07:04:37.300 ,6,1,0.,12.0,0.,12.0,0.,12.0,0.,12.0
1980-11-16 07:04:49.300 ,6,1,0.,12.0,0.,12.0,0.,12.0,0.,12.0
1980-11-16 07:05:01.300 ,6,0,0.,12.0,0.,12.0,0.,12.0,0.,12.0
1980-11-16 07:05:13.300 ,6,0,0.,12.0,0.,12.0,0.,12.0,0.,12.0
1980-11-16 07:05:25.300 ,7,1,0.,12.0,0.,12.0,0.,12.0,0.,12.0
1980-11-16 07:05:37.300 ,7,1,0.,12.0,2.,12.0,0.,12.0,0.,12.0
1980-11-16 07:05:49.300 ,7,0,0.,12.0,4.,12.0,0.,12.0,0.,12.0
1980-11-16 07:06:01.300 ,7,0,0.,12.0,3.,12.0,0.,12.0,0.,12.0
1980-11-16 07:06:13.300 ,7,1,0.,12.0,2.,12.0,0.,12.0,0.,12.0
1980-11-16 07:06:25.300 ,7,1,0.,12.0,3.,12.0,0.,12.0,0.,12.0
1980-11-16 07:06:37.300 ,7,0,0.,12.0,3.,12.0,0.,12.0,0.,12.0
1980-11-16 07:06:49.300 ,7,0,0.,12.0,2.,12.0,0.,12.0,0.,12.0
1980-11-16 07:07:01.300 ,6,1,0.,12.0,4.,12.0,0.,12.0,0.,12.0
1980-11-16 07:07:13.300 ,6,1,0.,12.0,2.,12.0,0.,12.0,0.,12.0
1980-11-16 07:07:25.300 ,6,0,0.,12.0,0.,12.0,0.,12.0,0.,12.0
1980-11-16 07:07:37.300 ,6,0,0.,12.0,0.,12.0,0.,12.0,0.,12.0
1980-11-16 07:07:49.300 ,5,1,0.,12.0,0.,12.0,0.,12.0,0.,12.0
1980-11-16 07:08:01.300 ,5,1,0.,12.0,0.,12.0,0.,12.0,0.,12.0
1980-11-16 07:08:13.300 ,5,0,0.,12.0,0.,12.0,0.,12.0,0.,12.0
1980-11-16 07:08:25.300 ,5,0,0.,12.0,0.,12.0,0.,12.0,0.,12.0
1980-11-16 07:08:37.300 ,4,1,0.,12.0,0.,12.0,0.,12.0,0.,12.0
1980-11-16 07:08:49.300 ,4,1,0.,12.0,0.,12.0,0.,12.0,0.,12.0
1980-11-16 07:09:01.300 ,4,0,0.,12.0,0.,12.0,0.,12.0,0.,12.0
1980-11-16 07:09:13.300 ,4,0,0.,12.0,0.,12.0,0.,12.0,0.,12.0
1980-11-16 07:09:25.300 ,3,1,0.,12.0,0.,12.0,0.,12.0,0.,12.0
1980-11-16 07:09:37.300 ,3,1,0.,12.0,0.,12.0,0.,12.0,0.,12.0
1980-11-16 07:09:49.300 ,3,0,0.,12.0,0.,12.0,0.,12.0,0.,12.0
1980-11-16 07:10:01.300 ,3,0,0.,12.0,0.,12.0,0.,12.0,0.,12.0
1980-11-16 07:10:13.300 ,2,1,0.,12.0,0.,12.0,0.,12.0,0.,12.0
1980-11-16 07:10:25.300 ,2,1,0.,12.0,0.,12.0,0.,12.0,0.,12.0
1980-11-16 07:10:37.300 ,2,0,0.,12.0,0.,12.0,0.,12.0,0.,12.0
1980-11-16 07:10:49.300 ,2,0,0.,12.0,0.,12.0,0.,12.0,0.,12.0
1980-11-16 07:11:01.300 ,1,1,0.,12.0,0.,12.0,0.,12.0,0.,12.0
1980-11-16 07:11:13.300 ,1,1,0.,12.0,0.,12.0,0.,12.0,0.,12.0
1980-11-16 07:11:25.300 ,1,0,0.,12.0,0.,12.0,0.,12.0,0.,12.0
1980-11-16 07:11:37.300 ,1,0,0.,12.0,0.,12.0,0.,12.0,0.,12.0
1980-11-16 07:11:49.300 ,0,1,0.,12.0,0.,12.0,0.,12.0,0.,12.0
1980-11-16 07:12:01.300 ,0,1,0.,12.0,0.,12.0,0.,12.0,0.,12.0
1980-11-16 07:12:13.300 ,0,0,0.,12.0,0.,12.0,0.,12.0,0.,12.0
1980-11-16 07:12:25.300 ,0,0,0.,12.0,0.,12.0,0.,12.0,0.,12.0
1980-11-16 07:12:37.300 ,0,1,0.,12.0,0.,12.0,0.,12.0,0.,12.0
1980-11-16 07:12:49.300 ,0,1,0.,12.0,0.,12.0,0.,12.0,0.,12.0
1980-11-16 07:13:01.300 ,0,0,0.,12.0,0.,12.0,0.,12.0,0.,12.0
1980-11-16 07:13:13.300 ,0,0,0.,12.0,0.,12.0,0.,12.0,0.,12.0
1980-11-16 07:13:25.300 ,1,1,0.,12.0,0.,12.0,0.,12.0,0.,12.0
1980-11-16 07:13:37.300 ,1,1,0.,12.0,0.,12.0,0.,12.0,0.,12.0
1980-11-16 07:13:49.300 ,1,0,0.,12.0,0.,12.0,0.,12.0,0.,12.0
1980-11-16 07:14:01.300 ,1,0,0.,12.0,0.,12.0,0.,12.0,0.,12.0
1980-11-16 07:14:13.300 ,2,1,0.,12.0,0.,12.0,0.,12.0,0.,12.0
1980-11-16 07:14:25.300 ,2,1,0.,12.0,0.,12.0,0.,12.0,0.,12.0
1980-11-16 07:14:37.300 ,2,0,0.,12.0,0.,12.0,0.,12.0,0.,12.0
1980-11-16 07:14:49.300 ,2,0,0.,12.0,0.,12.0,0.,12.0,0.,12.0
1980-11-16 07:15:01.300 ,3,1,0.,12.0,0.,12.0,0.,12.0,0.,12.0
1980-11-16 07:15:13.300 ,3,1,0.,12.0,0.,12.0,0.,12.0,0.,12.0
1980-11-16 07:15:25.300 ,3,0,0.,12.0,0.,12.0,0.,12.0,0.,12.0
1980-11-16 07:15:37.300 ,3,0,0.,12.0,0.,12.0,0.,12.0,0.,12.0
1980-11-16 07:15:49.300 ,4,1,0.,12.0,0.,12.0,0.,12.0,0.,12.0
1980-11-16 07:16:01.300 ,4,1,0.,12.0,0.,12.0,0.,12.0,0.,12.0
1980-11-16 07:16:13.300 ,4,0,0.,12.0,0.,12.0,0.,12.0,0.,12.0
1980-11-16 07:16:25.300 ,4,0,0.,12.0,0.,12.0,0.,12.0,0.,12.0
1980-11-16 07:16:37.300 ,5,1,0.,12.0,0.,12.0,0.,12.0,0.,12.0
1980-11-16 07:16:49.300 ,5,1,0.,12.0,0.,12.0,0.,12.0,0.,12.0
1980-11-16 07:17:01.300 ,5,0,0.,12.0,0.,12.0,0.,12.0,0.,12.0
1980-11-16 07:17:13.300 ,5,0,0.,12.0,0.,12.0,0.,12.0,0.,12.0
1980-11-16 07:17:25.300 ,6,1,0.,12.0,0.,12.0,0.,12.0,0.,12.0
1980-11-16 07:17:37.300 ,6,1,0.,12.0,0.,12.0,0.,12.0,0.,12.0
1980-11-16 07:17:49.300 ,6,0,0.,12.0,0.,12.0,0.,12.0,0.,12.0
1980-11-16 07:18:01.300 ,6,0,0.,12.0,0.,12.0,0.,12.0,0.,12.0